Weather observations for the past three days for
Seminole, Gaines County Airport
| Date | Time (cdt) | Wind (kph) | Vis. (km) | Weather | Sky Cond. | Temperature (ºC) | Relative Humidity | Wind Chill (°C) | Heat Index (°C) | Pressure | Precipitation (cm) | ||||||
|---|---|---|---|---|---|---|---|---|---|---|---|---|---|---|---|---|---|
| Air | Dwpt | 6 hour | altimeter (cm) | sea level (mb) | 1 hr | 3 hr | 6 hr | ||||||||||
| Max. | Min. | ||||||||||||||||
| 06 | 11:50 | E 13 | 16.09 | Fair | CLR | 31.5 | 16.3 | 40% | 32 | 76.5 | 0.0 | ||||||
| 06 | 11:30 | Calm | 16.09 | Fair | CLR | 31.1 | 17.3 | 44% | 32 | 76.5 | 0.0 | ||||||
| 06 | 11:10 | Calm | 16.09 | Fair | CLR | 30.1 | 17.5 | 47% | 31 | 76.5 | 0.0 | ||||||
| 06 | 10:50 | S 11 | 16.09 | Fair | CLR | 29.8 | 17.8 | 49% | 31 | 76.5 | 0.0 | ||||||
| 06 | 10:30 | S 11 | 16.09 | Fair | CLR | 29.3 | 18.3 | 52% | 30 | 76.5 | 0.0 | ||||||
| 06 | 10:10 | S 9 | 16.09 | Fair | CLR | 28.4 | 18.2 | 54% | 29 | 76.48 | 0.0 | ||||||
| 06 | 09:50 | SE 7 | 16.09 | Fair | CLR | 27.5 | 18.5 | 58% | 29 | 76.48 | 0.0 | ||||||
| 06 | 09:30 | Calm | 16.09 | Fair | CLR | 26.7 | 18.4 | 60% | 28 | 76.48 | 0.0 | ||||||
| 06 | 09:10 | Calm | 16.09 | Fair | CLR | 25.6 | 18.2 | 64% | 27 | 76.48 | 0.0 | ||||||
| 06 | 08:50 | Calm | 16.09 | Fair | CLR | 24.4 | 18 | 68% | 25 | 76.45 | 0.0 | ||||||
| 06 | 08:30 | Calm | 16.09 | Fair | CLR | 23.4 | 17.8 | 71% | 76.45 | 0.0 | |||||||
| 06 | 08:10 | Calm | 16.09 | Fair | CLR | 22.4 | 18 | 76% | 76.4 | 0.0 | |||||||
| 06 | 07:50 | Calm | 16.09 | Fair | CLR | 21.6 | 17.9 | 80% | 76.4 | 0.0 | |||||||
| 06 | 07:30 | Calm | 16.09 | Fair | CLR | 21.5 | 17.5 | 78% | 76.4 | 0.0 | |||||||
| 06 | 07:10 | Calm | 16.09 | Fair | CLR | 21.8 | 17.6 | 77% | 76.4 | 0.0 | |||||||
| 06 | 06:50 | Calm | 16.09 | Fair | CLR | 21.8 | 17.7 | 26.8 | 21.6 | 78% | 76.38 | 0.0 | |||||
| 06 | 06:30 | Calm | 16.09 | Fair | CLR | 22 | 17.2 | 74% | 76.4 | 0.0 | |||||||
| 06 | 06:10 | Calm | 16.09 | Fair | CLR | 21.7 | 17 | 75% | 76.38 | 0.0 | |||||||
| 06 | 05:50 | Calm | 16.09 | Fair | CLR | 21.8 | 17.1 | 75% | 76.38 | 0.0 | |||||||
| 06 | 05:30 | Calm | 16.09 | Fair | CLR | 22.6 | 17.1 | 71% | 76.35 | 0.0 | |||||||
| 06 | 05:10 | Calm | 16.09 | Fair | CLR | 22.7 | 17.2 | 71% | 76.35 | 0.0 | |||||||
| 06 | 04:50 | Calm | 16.09 | Fair | CLR | 23.5 | 17.3 | 68% | 76.35 | 0.0 | |||||||
| 06 | 04:30 | Calm | 16.09 | Fair | CLR | 23.7 | 17.4 | 68% | 76.35 | 0.0 | |||||||
| 06 | 04:10 | Calm | 16.09 | Fair | CLR | 24 | 17.4 | 67% | 25 | 76.35 | 0.0 | ||||||
| 06 | 03:50 | Calm | 16.09 | Fair | CLR | 24.3 | 17.5 | 66% | 25 | 76.35 | 0.0 | ||||||
| 06 | 03:30 | Calm | 16.09 | Fair | CLR | 24.6 | 17.5 | 65% | 26 | 76.35 | 0.0 | ||||||
| 06 | 03:10 | Calm | 16.09 | Fair | CLR | 25 | 17.3 | 62% | 26 | 76.35 | 0.0 | ||||||
| 06 | 02:50 | S 6 | 16.09 | Fair | CLR | 25.2 | 17.2 | 61% | 26 | 76.35 | 0.0 | ||||||
| 06 | 02:30 | S 6 | 16.09 | Fair | CLR | 25.5 | 16.9 | 59% | 26 | 76.35 | 0.0 | ||||||
| 06 | 02:10 | S 7 | 16.09 | Fair | CLR | 26.1 | 16.8 | 57% | 27 | 76.35 | 0.0 | ||||||
| 06 | 01:50 | S 9 | 16.09 | Fair | CLR | 26.6 | 16.6 | 54% | 27 | 76.35 | 0.0 | ||||||
| 06 | 01:30 | S 11 | 16.09 | Fair | CLR | 26.8 | 16 | 52% | 27 | 76.38 | 0.0 | ||||||
| 06 | 01:10 | S 9 | 16.09 | Fair | CLR | 26.5 | 15.6 | 51% | 27 | 76.38 | 0.0 | ||||||
| 06 | 00:50 | Calm | 16.09 | Fair | CLR | 26.4 | 15.2 | 35 | 26.1 | 50% | 27 | 76.38 | 0.0 | ||||
| 06 | 00:30 | Calm | 16.09 | Fair | CLR | 26.1 | 15.2 | 51% | 27 | 76.38 | 0.0 | ||||||
| 06 | 00:10 | Calm | 16.09 | Fair | CLR | 26.8 | 15 | 48% | 27 | 76.4 | 0.0 | ||||||
| 05 | 23:50 | Calm | 16.09 | Fair | CLR | 27.5 | 14.8 | 46% | 28 | 76.4 | 0.0 | ||||||
| 05 | 23:30 | SE 11 | 16.09 | Fair | CLR | 28 | 14.8 | 45% | 28 | 76.38 | 0.0 | ||||||
| 05 | 23:10 | SE 9 | 16.09 | Fair | CLR | 28.1 | 14.8 | 44% | 28 | 76.38 | 0.0 | ||||||
| 05 | 22:50 | SE 13 | 16.09 | Fair | CLR | 28.6 | 14.8 | 43% | 28 | 76.35 | 0.0 | ||||||
| 05 | 22:30 | SE 13 | 16.09 | Fair | CLR | 29 | 14.7 | 42% | 29 | 76.35 | 0.0 | ||||||
| 05 | 22:10 | SE 13 | 16.09 | Fair | CLR | 29 | 14.6 | 41% | 29 | 76.33 | 0.0 | ||||||
| 05 | 21:50 | SE 13 | 16.09 | Fair | CLR | 29.4 | 14.5 | 40% | 29 | 76.28 | 0.0 | ||||||
| 05 | 21:30 | E 9 | 16.09 | Fair | CLR | 29.6 | 14.5 | 40% | 29 | 76.25 | 0.0 | ||||||
| 05 | 21:10 | E 9 | 16.09 | Fair | CLR | 30.2 | 14.5 | 38% | 30 | 76.25 | 0.0 | ||||||
| 05 | 20:50 | E 11 | 16.09 | Fair | CLR | 30.9 | 14.5 | 37% | 30 | 76.23 | 0.0 | ||||||
| 05 | 20:30 | E 11 | 16.09 | Fair | CLR | 31.6 | 14.5 | 35% | 31 | 76.2 | 0.0 | ||||||
| 05 | 20:10 | E 11 | 16.09 | Fair | CLR | 32.6 | 14.5 | 33% | 32 | 76.17 | 0.0 | ||||||
| 05 | 19:50 | E 13 | 16.09 | Fair | CLR | 33.5 | 14.5 | 32% | 33 | 76.17 | 0.0 | ||||||
| 05 | 19:30 | E 15 | 16.09 | Fair | CLR | 34.3 | 14.3 | 30% | 34 | 76.17 | 0.0 | ||||||
| 05 | 19:10 | E 19 | 16.09 | Fair | CLR | 34.8 | 14.5 | 29% | 34 | 76.17 | 0.0 | ||||||
| 05 | 18:50 | E 15 | 16.09 | Fair | CLR | 35.1 | 14.5 | 36.6 | 33.7 | 29% | 35 | 76.15 | 0.0 | ||||
| 05 | 18:30 | SE 15 | 16.09 | Fair | CLR | 35.2 | 14.6 | 29% | 35 | 76.15 | 0.0 | ||||||
| 05 | 18:10 | E 11 G 28 | 16.09 | Fair | CLR | 35.7 | 14.4 | 28% | 35 | 76.12 | 0.0 | ||||||
| 05 | 17:50 | E 11 | 16.09 | Fair | CLR | 35.5 | 14.8 | 29% | 35 | 76.12 | 0.0 | ||||||
| 05 | 17:30 | E 15 | 16.09 | Fair | CLR | 35.8 | 14.5 | 28% | 35 | 76.15 | 0.0 | ||||||
| 05 | 17:10 | SE 17 G 28 | 16.09 | Fair | CLR | 36.5 | 14.9 | 27% | 36 | 76.15 | 0.0 | ||||||
| 05 | 16:50 | Calm | 16.09 | Fair | CLR | 36.2 | 15.3 | 29% | 36 | 76.15 | 0.0 | ||||||
| 05 | 16:30 | Calm | 16.09 | Partly Cloudy | SCT080 | 36.5 | 15.5 | 29% | 37 | 76.17 | 0.0 | ||||||
| 05 | 16:10 | Calm | 16.09 | Partly Cloudy | SCT080 | 36.1 | 15.1 | 28% | 36 | 76.17 | 0.0 | ||||||
| 05 | 15:50 | SE 19 | 16.09 | Fair | CLR | 36.2 | 15.4 | 29% | 36 | 76.23 | 0.0 | ||||||
| 05 | 15:30 | Calm | 16.09 | Fair | CLR | 35.6 | 14.9 | 29% | 35 | 76.23 | 0.0 | ||||||
| 05 | 15:10 | Calm | 16.09 | Fair | CLR | 36.1 | 15.4 | 29% | 36 | 76.25 | 0.0 | ||||||
| 05 | 14:50 | Calm | 16.09 | Fair | CLR | 36.2 | 15.9 | 30% | 36 | 76.28 | 0.0 | ||||||
| 05 | 12:50 | Calm | 16.09 | Fair | CLR | 33.4 | 17.1 | 33.4 | 21.8 | 38% | 34 | 76.4 | 0.0 | ||||
| 05 | 12:30 | Calm | 16.09 | Fair | CLR | 32.7 | 17.7 | 41% | 33 | 76.4 | 0.0 | ||||||
| 05 | 12:10 | Calm | 16.09 | Fair | CLR | 31.6 | 17.5 | 43% | 32 | 76.4 | 0.0 | ||||||
| 05 | 11:50 | S 6 | 16.09 | Fair | CLR | 30.9 | 17.9 | 46% | 32 | 76.43 | 0.0 | ||||||
| 05 | 11:30 | Calm | 16.09 | Fair | CLR | 29.8 | 18 | 49% | 31 | 76.43 | 0.0 | ||||||
| 05 | 11:10 | S 6 | 16.09 | Fair | CLR | 29.4 | 18.2 | 51% | 30 | 76.43 | 0.0 | ||||||
| 05 | 10:50 | SW 11 | 16.09 | Fair | CLR | 28.5 | 18.4 | 54% | 30 | 76.43 | 0.0 | ||||||
| 05 | 10:30 | S 13 | 16.09 | Fair | CLR | 27.9 | 18.6 | 57% | 29 | 76.43 | 0.0 | ||||||
| 05 | 10:10 | S 11 | 16.09 | Fair | CLR | 26.8 | 18.6 | 61% | 28 | 76.43 | 0.0 | ||||||
| 05 | 09:50 | S 13 | 16.09 | Fair | CLR | 26.3 | 18.6 | 63% | 27 | 76.45 | 0.0 | ||||||
| 05 | 09:30 | S 11 | 16.09 | Fair | CLR | 25.9 | 18.5 | 64% | 27 | 76.43 | 0.0 | ||||||
| 05 | 09:10 | Calm | 16.09 | Fair | CLR | 25.6 | 18.5 | 65% | 27 | 76.4 | 0.0 | ||||||
| 05 | 08:50 | Calm | 16.09 | Fair | CLR | 24.6 | 18.1 | 67% | 26 | 76.4 | 0.0 | ||||||
| 05 | 08:30 | Calm | 16.09 | Fair | CLR | 23.4 | 18 | 72% | 76.4 | 0.0 | |||||||
| 05 | 08:10 | Calm | 16.09 | Fair | CLR | 22.5 | 17.6 | 74% | 76.38 | 0.0 | |||||||
| 05 | 07:50 | Calm | 16.09 | Fair | CLR | 22 | 17.8 | 77% | 76.38 | 0.0 | |||||||
| 05 | 07:30 | Calm | 16.09 | Fair | CLR | 21.8 | 18 | 79% | 76.35 | 0.0 | |||||||
| 05 | 07:10 | Calm | 16.09 | Fair | CLR | 21.8 | 18.1 | 80% | 76.35 | 0.0 | |||||||
| 05 | 06:50 | Calm | 16.09 | Fair | CLR | 22 | 18.3 | 26.2 | 22 | 80% | 76.35 | 0.0 | |||||
| 05 | 06:30 | Calm | 16.09 | Fair | CLR | 22.1 | 18.5 | 80% | 76.35 | 0.0 | |||||||
| 05 | 06:10 | Calm | 16.09 | Fair | CLR | 22.2 | 18.6 | 80% | 76.35 | 0.0 | |||||||
| 05 | 05:50 | Calm | 16.09 | Fair | CLR | 22.5 | 18.8 | 80% | 76.35 | 0.0 | |||||||
| 05 | 05:30 | Calm | 16.09 | Fair | CLR | 22.8 | 18.5 | 77% | 76.35 | 0.0 | |||||||
| 05 | 05:10 | Calm | 16.09 | Fair | CLR | 22.7 | 18 | 75% | 76.35 | 0.0 | |||||||
| 05 | 04:50 | Calm | 16.09 | Fair | CLR | 23.3 | 17.7 | 71% | 76.33 | 0.0 | |||||||
| 05 | 04:30 | Calm | 16.09 | Fair | CLR | 23.5 | 18 | 71% | 76.33 | 0.0 | |||||||
| 05 | 04:10 | Calm | 16.09 | Fair | CLR | 23.8 | 18 | 70% | 76.33 | 0.0 | |||||||
| 05 | 03:50 | Calm | 16.09 | Fair | CLR | 24.1 | 18 | 69% | 25 | 76.33 | 0.0 | ||||||
| 05 | 03:30 | S 6 | 16.09 | Fair | CLR | 24.3 | 18 | 68% | 25 | 76.35 | 0.0 | ||||||
| 05 | 03:10 | SW 7 | 16.09 | Fair | CLR | 24.7 | 18 | 66% | 26 | 76.33 | 0.0 | ||||||
| 05 | 02:50 | S 6 | 16.09 | Fair | CLR | 25 | 18 | 65% | 26 | 76.33 | 0.0 | ||||||
| 05 | 02:30 | S 7 | 16.09 | Fair | CLR | 25.2 | 18 | 64% | 26 | 76.33 | 0.0 | ||||||
| 05 | 02:10 | S 9 | 16.09 | Fair | CLR | 25.4 | 18 | 64% | 26 | 76.33 | 0.0 | ||||||
| 05 | 01:50 | S 9 | 16.09 | Fair | CLR | 25.5 | 18 | 63% | 26 | 76.35 | 0.0 | ||||||
| 05 | 01:30 | S 9 | 16.09 | Fair | CLR | 25.8 | 18 | 62% | 27 | 76.35 | 0.0 | ||||||
| 05 | 01:10 | S 9 | 16.09 | Fair | CLR | 26.1 | 18 | 61% | 27 | 76.35 | 0.0 | ||||||
| 05 | 00:50 | S 13 | 16.09 | Fair | CLR | 26.5 | 18 | 36.4 | 26.5 | 60% | 27 | 76.35 | 0.0 | ||||
| 05 | 00:30 | S 13 | 16.09 | Fair | CLR | 26.6 | 17.9 | 59% | 28 | 76.33 | 0.0 | ||||||
| 05 | 00:10 | S 11 | 16.09 | Partly Cloudy | SCT110 | 26.9 | 17.7 | 57% | 28 | 76.35 | 0.0 | ||||||
| 04 | 23:50 | S 13 | 16.09 | Mostly Cloudy | BKN110 | 27.1 | 17.9 | 57% | 28 | 76.35 | 0.0 | ||||||
| 04 | 23:30 | S 19 G 30 | 16.09 | Fair | CLR | 27.5 | 17.6 | 55% | 28 | 76.35 | 0.0 | ||||||
| 04 | 23:10 | S 24 G 33 | 16.09 | Fair | CLR | 28.1 | 17.1 | 51% | 29 | 76.35 | 0.0 | ||||||
| 04 | 22:50 | SE 17 | 16.09 | Partly Cloudy | SCT110 | 28.5 | 16.1 | 47% | 29 | 76.35 | 0.0 | ||||||
| 04 | 22:30 | SE 19 G 30 | 16.09 | Partly Cloudy | SCT110 | 29.1 | 15.5 | 44% | 29 | 76.33 | 0.0 | ||||||
| 04 | 22:10 | SE 19 G 26 | 16.09 | Partly Cloudy | SCT110 | 29.5 | 15.3 | 42% | 29 | 76.33 | 0.0 | ||||||
| 04 | 21:50 | SE 19 G 33 | 16.09 | Partly Cloudy | SCT120 | 29.8 | 16 | 43% | 30 | 76.28 | 0.0 | ||||||
| 04 | 21:30 | SE 22 G 35 | 16.09 | Mostly Cloudy | BKN120 | 30.8 | 15.6 | 40% | 31 | 76.23 | 0.0 | ||||||
| 04 | 21:10 | SE 28 G 39 | 16.09 | Mostly Cloudy | BKN110 | 31.5 | 15.5 | 38% | 31 | 76.17 | 0.0 | ||||||
| 04 | 20:50 | SE 28 G 35 | 16.09 | Mostly Cloudy | BKN110 | 32.6 | 14.4 | 33% | 32 | 76.15 | 0.0 | ||||||
| 04 | 20:30 | Calm | 16.09 | Partly Cloudy | SCT120 | 33.3 | 11.1 | 26% | 32 | 76.12 | 0.0 | ||||||
| 04 | 20:10 | Calm | 16.09 | Fair | CLR | 34.4 | 11 | 24% | 33 | 76.12 | 0.0 | ||||||
| 04 | 19:50 | Calm | 16.09 | Fair | CLR | 35.2 | 10.7 | 22% | 34 | 76.12 | 0.0 | ||||||
| 04 | 19:30 | Calm | 16.09 | Fair | CLR | 35.9 | 10.4 | 21% | 34 | 76.12 | 0.0 | ||||||
| 04 | 19:10 | Calm | 16.09 | Fair | CLR | 36.2 | 10.2 | 20% | 35 | 76.12 | 0.0 | ||||||
| 04 | 18:50 | Calm | 16.09 | Fair | CLR | 36.2 | 10.1 | 37.4 | 35.1 | 20% | 34 | 76.1 | 0.0 | ||||
| 04 | 18:30 | Calm | 16.09 | Fair | CLR | 36.1 | 10.3 | 21% | 34 | 76.1 | 0.0 | ||||||
| 04 | 18:10 | Calm | 16.09 | Fair | CLR | 36 | 10.1 | 21% | 34 | 76.07 | 0.0 | ||||||
| 04 | 17:50 | Calm | 16.09 | Fair | CLR | 36.2 | 10.2 | 20% | 35 | 76.07 | 0.0 | ||||||
| 04 | 17:30 | Calm | 16.09 | Partly Cloudy | SCT110 | 36.3 | 9.9 | 20% | 35 | 76.07 | 0.0 | ||||||
| 04 | 17:10 | Calm | 16.09 | Partly Cloudy | SCT110 | 36.6 | 9.8 | 19% | 35 | 76.1 | 0.0 | ||||||
| 04 | 16:50 | Calm | 16.09 | Fair | CLR | 36.5 | 10.2 | 20% | 35 | 76.1 | 0.0 | ||||||
| 04 | 16:30 | Calm | 16.09 | Fair | CLR | 36.6 | 10.5 | 20% | 35 | 76.12 | 0.0 | ||||||
| 04 | 16:10 | Calm | 16.09 | Partly Cloudy | SCT110 | 36.6 | 10.7 | 21% | 35 | 76.12 | 0.0 | ||||||
| 04 | 15:50 | Calm | 16.09 | Partly Cloudy | SCT100 | 37.4 | 11.1 | 20% | 36 | 76.15 | 0.0 | ||||||
| 04 | 15:30 | Calm | 16.09 | Fair | CLR | 36.3 | 10.7 | 21% | 35 | 76.17 | 0.0 | ||||||
| 04 | 15:10 | Calm | 16.09 | Fair | CLR | 36.3 | 11.4 | 22% | 35 | 76.2 | 0.0 | ||||||
| 04 | 14:50 | Calm | 16.09 | Partly Cloudy | SCT095 | 37 | 12.8 | 23% | 36 | 76.23 | 0.0 | ||||||
| 04 | 14:30 | Calm | 16.09 | Partly Cloudy | SCT095 | 36.6 | 12.6 | 24% | 36 | 76.23 | 0.0 | ||||||
| 04 | 14:10 | Calm | 16.09 | Fair | CLR | 36.6 | 12.7 | 24% | 36 | 76.25 | 0.0 | ||||||
| 04 | 13:50 | Calm | 16.09 | Fair | CLR | 36.2 | 12.9 | 25% | 35 | 76.28 | 0.0 | ||||||
| 04 | 13:30 | Calm | 16.09 | Fair | CLR | 35.7 | 13.7 | 27% | 35 | 76.28 | 0.0 | ||||||
| 04 | 13:10 | Calm | 16.09 | Fair | CLR | 35.4 | 13.7 | 27% | 35 | 76.3 | 0.0 | ||||||
| 04 | 12:50 | Calm | 16.09 | Fair | CLR | 34.8 | 14.2 | 35 | 23 | 29% | 34 | 76.35 | 0.0 | ||||
| 04 | 12:30 | Calm | 16.09 | Fair | CLR | 34.5 | 14.4 | 30% | 34 | 76.35 | 0.0 | ||||||
| 04 | 12:10 | Calm | 16.09 | Fair | CLR | 33.7 | 14.5 | 31% | 33 | 76.38 | 0.0 | ||||||
| 04 | 11:50 | Calm | 16.09 | Fair | CLR | 32.9 | 15 | 34% | 32 | 76.38 | 0.0 | ||||||
| 04 | 11:30 | Calm | 16.09 | Fair | CLR | 32.3 | 15.2 | 36% | 32 | 76.38 | 0.0 | ||||||
| 04 | 11:10 | Calm | 16.09 | Fair | CLR | 32 | 15.5 | 37% | 32 | 76.38 | 0.0 | ||||||
| 04 | 10:50 | Calm | 16.09 | Fair | CLR | 31 | 15.6 | 39% | 31 | 76.38 | 0.0 | ||||||
| 04 | 10:30 | Calm | 16.09 | Fair | CLR | 30.2 | 15.8 | 42% | 30 | 76.38 | 0.0 | ||||||
| 04 | 10:10 | Calm | 16.09 | Fair | CLR | 29.8 | 15.8 | 43% | 30 | 76.38 | 0.0 | ||||||
| 04 | 09:50 | Calm | 16.09 | Fair | CLR | 28.6 | 15.7 | 46% | 29 | 76.38 | 0.0 | ||||||
| 04 | 09:30 | Calm | 16.09 | Fair | CLR | 27.8 | 16 | 49% | 28 | 76.4 | 0.0 | ||||||
| 04 | 09:10 | Calm | 16.09 | Fair | CLR | 26.6 | 16 | 52% | 27 | 76.38 | 0.0 | ||||||
| 04 | 08:50 | Calm | 16.09 | Fair | CLR | 25.8 | 15.7 | 54% | 27 | 76.35 | 0.0 | ||||||
| 04 | 08:30 | Calm | 16.09 | Fair | CLR | 25 | 15.7 | 56% | 26 | 76.33 | 0.0 | ||||||
| 04 | 08:10 | Calm | 16.09 | Fair | CLR | 23.7 | 15.5 | 60% | 76.33 | 0.0 | |||||||
| 04 | 07:50 | Calm | 16.09 | Fair | CLR | 23.1 | 15.1 | 61% | 76.28 | 0.0 | |||||||
| 04 | 07:30 | Calm | 16.09 | Fair | CLR | 23.5 | 15 | 59% | 76.28 | 0.0 | |||||||
| 04 | 07:10 | Calm | 16.09 | Fair | CLR | 23.5 | 14.9 | 59% | 76.28 | 0.0 | |||||||
| 04 | 06:50 | Calm | 16.09 | Fair | CLR | 22.9 | 15 | 25.8 | 22.6 | 61% | 76.25 | 0.0 | |||||
| 04 | 06:30 | Calm | 16.09 | Fair | CLR | 24.5 | 14.8 | 55% | 26 | 76.25 | 0.0 | ||||||
| 04 | 06:10 | Calm | 16.09 | Fair | CLR | 24.6 | 15.1 | 56% | 26 | 76.25 | 0.0 | ||||||
| 04 | 05:50 | Calm | 16.09 | Fair | CLR | 22.6 | 16 | 66% | 76.25 | 0.0 | |||||||
| 04 | 05:30 | Calm | 16.09 | Fair | CLR | 23 | 16.3 | 66% | 76.28 | 0.0 | |||||||
| 04 | 05:10 | Calm | 16.09 | Fair | CLR | 23.5 | 16.4 | 65% | 76.28 | 0.0 | |||||||
| 04 | 04:50 | Calm | 16.09 | Fair | CLR | 24 | 16.2 | 62% | 25 | 76.25 | 0.0 | ||||||
| 04 | 04:30 | Calm | 16.09 | Fair | CLR | 23.5 | 16.1 | 63% | 76.25 | 0.0 | |||||||
| 04 | 04:10 | Calm | 16.09 | Fair | CLR | 23.9 | 16 | 61% | 25 | 76.25 | 0.0 | ||||||
| 04 | 03:50 | Calm | 16.09 | Fair | CLR | 24.3 | 16.2 | 61% | 25 | 76.23 | 0.0 | ||||||
| 04 | 03:30 | Calm | 16.09 | Fair | CLR | 24.5 | 16.3 | 60% | 26 | 76.23 | 0.0 | ||||||
| 04 | 03:10 | Calm | 16.09 | Fair | CLR | 24.5 | 16.3 | 60% | 26 | 76.23 | 0.0 | ||||||
| 04 | 02:50 | Calm | 16.09 | Fair | CLR | 24.6 | 16.6 | 61% | 26 | 76.23 | 0.0 | ||||||
| 04 | 02:30 | Calm | 16.09 | Fair | CLR | 25.1 | 16 | 57% | 26 | 76.23 | 0.0 | ||||||
| 04 | 02:10 | Calm | 16.09 | Fair | CLR | 25 | 14.8 | 53% | 26 | 76.23 | 0.0 | ||||||
| 04 | 01:50 | Calm | 16.09 | Fair | CLR | 25 | 15.1 | 54% | 26 | 76.23 | 0.0 | ||||||
| 04 | 01:30 | Calm | 16.09 | Fair | CLR | 25.5 | 14.5 | 51% | 26 | 76.23 | 0.0 | ||||||
| 04 | 01:10 | Calm | 16.09 | Fair | CLR | 25.6 | 14.3 | 50% | 26 | 76.23 | 0.0 | ||||||
| 04 | 00:50 | Calm | 16.09 | Fair | CLR | 26.4 | 14 | 33.2 | 26.2 | 46% | 27 | 76.23 | 0.0 | ||||
| 04 | 00:30 | Calm | 16.09 | Partly Cloudy | SCT110 | 26.3 | 13.6 | 46% | 27 | 76.23 | 0.0 | ||||||
| 04 | 00:10 | Calm | 16.09 | Mostly Cloudy | BKN110 | 27 | 13.5 | 43% | 27 | 76.23 | 0.0 | ||||||
| 03 | 23:50 | Calm | 16.09 | Partly Cloudy | SCT110 | 27.2 | 13.4 | 43% | 27 | 76.23 | 0.0 | ||||||
| 03 | 23:30 | Calm | 16.09 | Partly Cloudy | SCT110 | 27.7 | 13.6 | 42% | 28 | 76.23 | 0.0 | ||||||
| 03 | 23:10 | Calm | 16.09 | Partly Cloudy | SCT120 | 28.8 | 13.4 | 39% | 28 | 76.23 | 0.0 | ||||||
| 03 | 22:50 | Calm | 16.09 | Partly Cloudy | SCT120 | 29.3 | 13.5 | 38% | 29 | 76.23 | 0.0 | ||||||
| 03 | 22:30 | Calm | 16.09 | Partly Cloudy | SCT120 | 29.3 | 13.8 | 39% | 29 | 76.23 | 0.0 | ||||||
| 03 | 22:10 | Calm | 16.09 | Fair | CLR | 29.9 | 13.6 | 37% | 29 | 76.23 | 0.0 | ||||||
| 03 | 21:50 | Calm | 16.09 | Fair | CLR | 30 | 14 | 38% | 29 | 76.2 | 0.0 | ||||||
| 03 | 21:30 | Calm | 16.09 | Fair | CLR | 30 | 14.2 | 38% | 29 | 76.17 | 0.0 | ||||||
| 03 | 21:10 | Calm | 16.09 | Fair | CLR | 30.7 | 13.7 | 35% | 30 | 76.15 | 0.0 | ||||||
| 03 | 20:50 | Calm | 16.09 | Fair | CLR | 31 | 13.5 | 34% | 30 | 76.12 | 0.0 | ||||||
| 03 | 20:30 | S 7 | 16.09 | Fair | CLR | 31 | 14.3 | 36% | 30 | 76.12 | 0.0 | ||||||
| 03 | 20:10 | Calm | 16.09 | Fair | CLR | 31.9 | 13.3 | 32% | 31 | 76.12 | 0.0 | ||||||
| 03 | 19:50 | Calm | 16.09 | Fair | CLR | 32.6 | 12.8 | 30% | 32 | 76.1 | 0.0 | ||||||
| 03 | 19:30 | Calm | 16.09 | Fair | CLR | 32.3 | 13.5 | 32% | 31 | 76.12 | 0.0 | ||||||
| 03 | 19:10 | Calm | 16.09 | Fair | CLR | 33 | 12.9 | 29% | 32 | 76.15 | 0.0 | ||||||
| 03 | 18:50 | NW 11 | 16.09 | Mostly Cloudy | BKN110 | 33 | 13.1 | 38.1 | 29.9 | 30% | 32 | 76.15 | 0.0 | ||||
| 03 | 18:30 | Calm | 16.09 | Mostly Cloudy | BKN110 | 34 | 11.9 | 26% | 33 | 76.15 | 0.0 | ||||||
| 03 | 18:10 | SW 17 | 16.09 | Fair | CLR | 33.9 | 13.2 | 28% | 33 | 76.12 | 0.0 | ||||||
| 03 | 17:50 | SE 17 | 16.09 | Fair | CLR | 34.3 | 13 | 27% | 33 | 76.1 | 0.0 | ||||||
| 03 | 17:30 | SE 20 G 33 | 16.09 | Fair | CLR | 34.8 | 11.1 | 24% | 33 | 76.1 | 0.0 | ||||||
| 03 | 17:10 | SE 24 G 31 | 16.09 | Fair | CLR | 34.8 | 13.9 | 28% | 34 | 76.1 | 0.0 | ||||||
| 03 | 16:50 | SE 28 G 35 | 16.09 | Fair | CLR | 34.4 | 12.6 | 27% | 33 | 76.1 | 0.0 | ||||||
| 03 | 16:30 | E 28 G 37 | 16.09 | Fair | CLR | 30.8 | 13.6 | 35% | 30 | 76.1 | 0.0 | ||||||
| 03 | 16:10 | E 35 G 43 | 16.09 | Fair and Breezy | CLR | 31.6 | 13.2 | 33% | 31 | 76.15 | 0.0 | ||||||
| 03 | 15:50 | E 30 G 43 | 16.09 | Fair | CLR | 33.5 | 13.3 | 29% | 33 | 76.15 | 0.0 | ||||||
| 03 | 15:30 | SW 13 G 31 | 16.09 | Partly Cloudy | SCT100 SCT120 | 34.6 | 13 | 27% | 34 | 76.15 | 0.0 | ||||||
| 03 | 15:10 | Calm | 16.09 | Partly Cloudy | SCT100 | 36.2 | 12.5 | 24% | 35 | 76.15 | 0.0 | ||||||
| 03 | 14:50 | Calm | 16.09 | Partly Cloudy | SCT095 | 37.2 | 12.3 | 22% | 36 | 76.17 | 0.0 | ||||||
| 03 | 14:30 | Calm | 16.09 | Mostly Cloudy | BKN095 | 37.8 | 12.2 | 21% | 37 | 76.17 | 0.0 | ||||||
| 03 | 14:10 | Calm | 16.09 | Mostly Cloudy | BKN095 | 37.3 | 12.6 | 23% | 36 | 76.17 | 0.0 | ||||||
| 03 | 13:30 | Calm | 16.09 | Fair | CLR | 36.8 | 12.3 | 23% | 36 | 76.25 | 0.0 | ||||||
| 03 | 13:10 | Calm | 16.09 | Fair | CLR | 36.2 | 12.6 | 24% | 35 | 76.28 | 0.0 | ||||||
| 03 | 12:50 | Calm | 16.09 | Fair | CLR | 36 | 13.1 | 36.3 | 22.9 | 25% | 35 | 76.3 | 0.0 | ||||
| 03 | 12:30 | Calm | 16.09 | Partly Cloudy | SCT120 | 35.9 | 13.7 | 26% | 35 | 76.33 | 0.0 | ||||||
| Date | Time (cdt) | Wind (kph) | Vis. (km) | Weather | Sky Cond. | Air | Dwpt | Max. | Min. | Relative Humidity | Wind Chill (°C) | Heat Index (°C) | altimeter (cm) | sea level (mb) | 1 hr | 3 hr | 6 hr |
| 6 hour | |||||||||||||||||
| Temperature (ºC) | Pressure | Precipitation (cm) | |||||||||||||||